"Pseudo-MPEC" for P11djL1
Created 2021 Feb 28 14:07:07 UT using Find_Orb
Click here for an explanation of pseudo-MPECs
Astrometry: P11djL1 C2021 02 133QO;Oen7ImHH3g2y;_:rmsE5
AstrometryY
redacted;!
click-x
F51 P11djL1 C2021 02 13fJ1=SFt^hA`j.
hereMV.OLGCD;qiPPk]N1a9)
for:?OYmg!5(kCU
F51 P11djL1 C2021 02 13H+_tS\rnSax],5ew$Gk
explanationwPJkr%ZK#/McHGp+?d8ZPg
F51 Station data: (F51) Pan-STARRS 1, Haleakala (N20.707235 W156.255910) US/Hawaii. Observers N. Primak, A. Schultz, S. Watters, J. Thiel, T. Goggia. Measurer PS1 Science Consortium. 1.8-m Ritchey-Chrétien + CCD. Orbital elements: P11djL1 Perihelion 2021 Feb 14.663875 +/- 35.355 TT = 15:55:58 (JD 2459260.163875) Epoch 2021 Feb 13.0 TT = JDT 2459258.5 Earth MOID: 0.2837 Ju: 0.4863 M 359.67176434 +/- 27.677496 (J2000 ecliptic) AutoNEOCP n 0.19727178 +/- 0.291441 Peri. 356.55760 +/- 67.050235 a 2.92253285 +/- 2.90615 Node 141.17800 +/- 51.187392 e 0.5654655 +/- 0.25333 Incl. 11.74462 +/- 6.5060383 P 5.00 H 22.5 G 0.15 U 11.9 SR q 1.26994108 +/- 0.41332 Q 4.57512462 +/- 37.6958 From 3 observations 2021 Feb. 13 (58.8 min); mean residual 0".21
Residuals in arcseconds: 210213 F51 .00 .14+ 210213 F51 .01- .42- 210213 F51 .01+ .28+ Ephemerides (geocentric): Date (UTC) HH RA Dec delta r elong mag " sig PA ---- -- -- -- ------------- ----------- ------ ------ ----- --- ---- --- 2021 02 28 14 08 10 29.059 +26 24 51.93 .35589 1.2799 138.8 22.1 30d 11 2021 02 28 15 08 10 36.364 +26 25 57.29 .35603 1.2800 138.7 22.1 30d 11 2021 02 28 16 08 10 43.674 +26 27 02.53 .35616 1.2800 138.7 22.1 30d 11 2021 02 28 17 08 10 50.987 +26 28 07.67 .35630 1.2801 138.7 22.1 30d 11 2021 02 28 18 08 10 58.305 +26 29 12.69 .35644 1.2802 138.7 22.1 30d 11 2021 02 28 19 08 11 05.626 +26 30 17.61 .35658 1.2802 138.6 22.2 30d 11 2021 02 28 20 08 11 12.952 +26 31 22.42 .35672 1.2803 138.6 22.2 30d 11 2021 02 28 21 08 11 20.281 +26 32 27.11 .35686 1.2803 138.6 22.2 30d 11 2021 02 28 22 08 11 27.615 +26 33 31.70 .35700 1.2804 138.6 22.2 30d 11 2021 02 28 23 08 11 34.952 +26 34 36.18 .35714 1.2805 138.6 22.2 30d 11 2021 03 01 00 08 11 42.294 +26 35 40.54 .35727 1.2805 138.5 22.2 30d 11 2021 03 01 01 08 11 49.639 +26 36 44.80 .35741 1.2806 138.5 22.2 30d 11 2021 03 01 02 08 11 56.988 +26 37 48.95 .35755 1.2807 138.5 22.2 30d 11 2021 03 01 03 08 12 04.342 +26 38 52.98 .35770 1.2807 138.5 22.2 30d 11 2021 03 01 04 08 12 11.699 +26 39 56.91 .35784 1.2808 138.5 22.2 30d 11 2021 03 01 05 08 12 19.060 +26 41 00.72 .35798 1.2808 138.4 22.2 30d 11 2021 03 01 06 08 12 26.425 +26 42 04.43 .35812 1.2809 138.4 22.2 30d 11 2021 03 01 07 08 12 33.794 +26 43 08.02 .35826 1.2810 138.4 22.2 30d 11 2021 03 01 08 08 12 41.167 +26 44 11.51 .35840 1.2810 138.4 22.2 30d 11 2021 03 01 09 08 12 48.543 +26 45 14.88 .35854 1.2811 138.3 22.2 30d 11 2021 03 01 10 08 12 55.924 +26 46 18.14 .35868 1.2812 138.3 22.2 30d 11 2021 03 01 11 08 13 03.308 +26 47 21.29 .35883 1.2812 138.3 22.2 30d 11 2021 03 01 12 08 13 10.697 +26 48 24.33 .35897 1.2813 138.3 22.2 30d 11 2021 03 01 13 08 13 18.089 +26 49 27.26 .35911 1.2813 138.3 22.2 30d 11 2021 03 01 14 08 13 25.484 +26 50 30.08 .35925 1.2814 138.2 22.2 30d 11 2021 03 01 15 08 13 32.884 +26 51 32.79 .35940 1.2815 138.2 22.2 30d 11 2021 03 01 16 08 13 40.287 +26 52 35.38 .35954 1.2815 138.2 22.2 30d 11 2021 03 01 17 08 13 47.694 +26 53 37.87 .35968 1.2816 138.2 22.2 30d 11 2021 03 01 18 08 13 55.105 +26 54 40.24 .35983 1.2817 138.2 22.2 30d 11 2021 03 01 19 08 14 02.520 +26 55 42.50 .35997 1.2817 138.1 22.2 30d 11 2021 03 01 20 08 14 09.938 +26 56 44.65 .36012 1.2818 138.1 22.2 31d 11 2021 03 01 21 08 14 17.360 +26 57 46.69 .36026 1.2819 138.1 22.2 31d 11 2021 03 01 22 08 14 24.786 +26 58 48.62 .36041 1.2819 138.1 22.2 31d 11 2021 03 01 23 08 14 32.216 +26 59 50.43 .36055 1.2820 138.0 22.2 31d 11 2021 03 02 00 08 14 39.649 +27 00 52.13 .36070 1.2820 138.0 22.2 31d 11 2021 03 02 01 08 14 47.086 +27 01 53.73 .36084 1.2821 138.0 22.2 31d 11 2021 03 02 02 08 14 54.526 +27 02 55.21 .36099 1.2822 138.0 22.2 31d 11 2021 03 02 03 08 15 01.971 +27 03 56.57 .36113 1.2822 138.0 22.2 31d 11 2021 03 02 04 08 15 09.419 +27 04 57.83 .36128 1.2823 137.9 22.2 31d 11 2021 03 02 05 08 15 16.870 +27 05 58.97 .36143 1.2824 137.9 22.2 31d 11 2021 03 02 06 08 15 24.325 +27 07 00.00 .36157 1.2824 137.9 22.2 31d 11 2021 03 02 07 08 15 31.784 +27 08 00.92 .36172 1.2825 137.9 22.2 31d 11 2021 03 02 08 08 15 39.246 +27 09 01.73 .36187 1.2826 137.9 22.2 31d 11 2021 03 02 09 08 15 46.712 +27 10 02.43 .36202 1.2826 137.8 22.2 31d 11 2021 03 02 10 08 15 54.181 +27 11 03.01 .36216 1.2827 137.8 22.2 31d 11 2021 03 02 11 08 16 01.654 +27 12 03.48 .36231 1.2828 137.8 22.2 31d 11 2021 03 02 12 08 16 09.131 +27 13 03.84 .36246 1.2828 137.8 22.2 31d 11 2021 03 02 13 08 16 16.611 +27 14 04.08 .36261 1.2829 137.7 22.2 31d 11